GORIZONT 19 1 20263U 89081A 21064.74216336 -.00000376 00000-0 00000-0 0 9991 2 20263 14.1206 348.2120 0002498 330.6153 224.2728 1.00250222 27991 SL-12 R/B(2) 1 20266U 89081D 21063.98187132 .00000101 00000-0 00000-0 0 9995 2 20266 13.9639 347.7205 0030553 71.6458 113.1351 1.00603750 99931